{"data":{"norad_id":65195,"intl_designator":"2025-175X","name":"STARLINK-34928","alt_names":[],"object_type":"PAYLOAD","status":"ACTIVE","operator":null,"country":"US","launch_date":"2025-08-14","launch_site_code":"AFWTR","launch_vehicle":null,"mission":null,"orbit_class":"UNKNOWN","rcs_meters":null,"size_class":null,"mass_kg":null,"dimensions":null,"purposes":["comms"],"wikipedia_slug":null,"has_3d_model":false,"image_url":null,"decayed_at":null,"tle_current":{"epoch":"2026-05-25T02:38:09.930624Z","epoch_age_seconds":65880,"freshness":"FRESH","line1":"1 65195U 25175X   26145.10983716  .00006553  00000+0  45775-3 0  9998","line2":"2 65195  97.4516  17.6717 0002631  85.7354 274.4174 15.05653929 44140","mean_motion":15.05653929,"eccentricity":0.0002631,"inclination_deg":97.4516,"raan_deg":17.6717,"arg_perigee_deg":85.7354,"mean_anomaly_deg":274.4174,"bstar":0.00045775,"rev_number":4414,"period_min":95.639507343922,"perigee_km":547.67644118884,"apogee_km":551.32176330585,"semimajor_km":6927.6361022473,"source":"CELESTRAK","updated_at":"2026-05-25T13:38:20.716721Z"}}}